Torna al catalogo

STARLINK-30763

AttivoComunicazioniVLEO
NORAD 58163·PAYLOAD·🇺🇸 United States

Lanciato Oct 29, 2023 da Vandenberg Space Force Base

Loading…

Prossimi Passaggi (prossime 24 ore)

TLE

AggiornatoSource: CelesTrak SupGP

Epoca: Sep 15, 2026, 02:56 UTC

1 58163C 23166P   26258.12270833 -.00016279  00000+0 -48105-3 0  2585
2 58163  53.1611  46.5204 0001145  83.2976 181.7599 15.34392601    14

Traccia STARLINK-30763 in tempo reale con AllMySat

Download on the App Store